Station 44025 (LLNR 830) - LONG ISLAND - 30 NM South of Islip, NY Image indicating link to RSS feed of recent meteorological observations for station 44025


Conditions at 44025 as of
(10:10 am EDT)
1410 GMT on 05/21/2024:
     

Click on the graph icon in the table below to see a time series plot of the last five days of that observation.

5-day plot - Wind Direction Wind Direction (WDIR): S ( 180 deg true )
5-day plot - Wind Speed Wind Speed (WSPD):4.0 m/s
5-day plot - Wind Gust Wind Gust (GST):5.0 m/s
5-day plot - Wave Height Wave Height (WVHT): 0.9 m
5-day plot - Average Wave Period Average Period (APD): 6.3 sec
5-day plot - Mean Wave Direction Mean Wave Direction (MWD): E ( 94 deg true )
5-day plot - Atmospheric Pressure Atmospheric Pressure (PRES):1017.2 mb
5-day plot - Air Temperature Air Temperature (ATMP): 11.5 °C
5-day plot - Water Temperature Water Temperature (WTMP): 11.7 °C
5-day plot - Dew Point Dew Point (DEWP): 11.5 °C
5-day plot - Wind Chill Wind Chill (CHILL): 9.8 °C
5-day plot - Wind Speed at 10 Meters Wind Speed at 10 meters (WSPD10M): 5 m/s
5-day plot - Wind Speed at 20 Meters Wind Speed at 20 meters (WSPD20M): 5 m/s
5-day plot -  Wind Speed, Wind Gust and Atmospheric Pressure Combined plot of Wind Speed, Gust, and Air Pressure
Supplemental Measurements
Highest 1-minute Wind Speed
Time (EDT)5-day plot - 1-Minute Wind Speed WSPD 5-day plot - 1-Minute Wind Direction WDIR
10:01 am 5 m/s-
Previous observations
TIME
(EDT)
5-day plot - Wind Direction
WDIR
 
5-day plot - Wind Speed
WSPD
m/s
5-day plot - Wind Gust
GST
m/s
5-day plot - Wave Height
WVHT
m
5-day plot - Dominant Wave Period
DPD
sec
5-day plot - Average Wave Period
APD
sec
5-day plot - Mean Wave Direction
MWD
 
5-day plot - Atmospheric Pressure
PRES
mb
5-day plot - Pressure Tendency
PTDY
mb
5-day plot - Air Temperature
ATMP
°C
5-day plot - Water Temperature
WTMP
°C
5-day plot - Dew Point
DEWP
°C
5-day plot - Salinity
SAL
psu
5-day plot - Visibility
VIS
km
5-day plot - Tide (above MLLW)
TIDE
m
2024-05-21 10:00 am S 5.0 6.0----1017.2 +0.0 11.5 12.0 11.5---
2024-05-21 09:50 am S 5.0 5.0 0.9 86.1 E1017.2- 11.4 11.8 11.4---
2024-05-21 09:40 am S 4.0 5.0 0.9-6.1 E1017.3- 11.4 11.9 11.4---
2024-05-21 09:30 am S 4.0 5.0----1017.4- 11.4 11.9 11.4---
2024-05-21 09:20 am S 3.0 4.0 1.0 86.4ESE1017.6- 11.4 11.8 11.4---
2024-05-21 09:10 am S 3.0 4.0 1.0-6.4ESE1017.6- 11.4 12.1 11.4---
2024-05-21 09:00 am S 3.0 4.0----1017.6 +0.7 11.4 12.4 11.4---
2024-05-21 08:50 am S 3.0 4.0 0.9 86.3 E1017.6- 11.4 12.4 11.4---
2024-05-21 08:40 am S 3.0 4.0----1017.6- 11.4 12.3 11.4---
2024-05-21 08:30 am S 3.0 4.0----1017.6- 11.4 12.4 11.4---
2024-05-21 08:20 am S 4.0 4.0 0.9 96.2 E1017.4- 11.4 12.4 11.4---
2024-05-21 08:10 am S 4.0 4.0 0.9-6.2 E1017.1- 11.4 12.3 11.4---
2024-05-21 08:00 am S 3.0 4.0----1017.0 +0.7 11.2 12.4 11.2---
2024-05-21 07:50 am S 3.0 3.0 0.8 85.8ESE1017.2- 11.2 12.2 11.2---
2024-05-21 07:40 am S 2.0 3.0----1017.3- 11.1 12.3 11.1---
2024-05-21 07:30 am S 2.0 3.0----1017.1- 11.1 12.0 11.1---
2024-05-21 07:20 am S 2.0 3.0 0.9 75.8ESE1017.2- 11.1 12.0 11.1---
2024-05-21 07:10 am S 2.0 2.0 0.9-5.8ESE1017.2- 11.0 12.0 11.0---
2024-05-21 07:00 am S 1.0 2.0----1017.1 +0.9 10.9 12.1 10.9---
2024-05-21 06:50 am S 1.0 2.0 0.9 96.0 E1017.0- 10.9 12.1 10.9---
2024-05-21 06:40 amSSE 1.0 1.0 0.9-6.0 E1017.1- 10.9 12.1 10.9---
2024-05-21 06:30 amSSE 1.0 2.0----1016.9- 10.8 12.0 10.8---
2024-05-21 06:20 am S 1.0 2.0 0.9 65.7 E1016.9- 10.8 12.1 10.8---
2024-05-21 06:10 am S 1.0 1.0 0.9-5.7 E1016.9- 10.6 12.1 10.6---
2024-05-21 06:00 am- 0.0 1.0----1016.9 +0.5 10.4 12.1 10.4---
2024-05-21 05:50 am- 0.0 1.0 0.9 85.8ESE1016.9- 10.2 12.1 10.2---
2024-05-21 05:40 amSSW 1.0 1.0----1016.7- 10.2 12.1 10.2---
2024-05-21 05:30 amSSW 1.0 1.0----1016.7- 10.1- 10.1---
2024-05-21 05:20 am- 0.0 1.0 0.9 95.8ESE1016.6- 10.0 11.8 10.0---
2024-05-21 05:10 am- 0.0 1.0----1016.5- 10.0 11.9 10.0---
2024-05-21 05:00 amWSW 1.0 1.0----1016.4 -0.5 10.0 11.7 10.0---
2024-05-21 04:50 am W 1.0 2.0 0.9 85.7 E1016.4- 9.9 11.8 9.9---
2024-05-21 04:40 amWSW 1.0 2.0----1016.4- 9.9 11.9 9.9---
2024-05-21 04:30 amWSW 1.0 2.0----1016.3- 9.9 11.8 9.9---
2024-05-21 04:20 am SW 1.0 2.0 0.9 85.9 E1016.3- 9.8 11.8 9.8---
2024-05-21 04:10 am SW 1.0 2.0 0.9-5.9 E1016.3- 9.8 11.6 9.8---
2024-05-21 04:00 am SW 1.0 2.0----1016.3 -0.7 9.9 11.7 9.9---
2024-05-21 03:50 amSSW 2.0 3.0 1.0 86.0 E1016.2- 9.9 11.7 9.9---
2024-05-21 03:40 amSSW 2.0 2.0 1.0-6.0 E1016.2- 9.9 11.7 9.9---
2024-05-21 03:30 am SW 2.0 3.0----1016.3- 9.8 11.8 9.8---
2024-05-21 03:20 am SW 2.0 3.0 0.9 85.9 E1016.4- 9.9 11.9 9.9---
2024-05-21 03:10 amSSW 2.0 3.0 0.9-5.9 E1016.5- 9.9 11.9 9.9---
2024-05-21 03:00 am SW 2.0 2.0----1016.4 -0.9 9.8 11.9 9.8---
2024-05-21 02:50 am SW 2.0 2.0 0.9 86.0 E1016.6- 9.9 12.0 9.9---
2024-05-21 02:40 am SW 2.0 2.0 0.9-6.0 E1016.7- 9.9 11.9 9.9---
2024-05-21 02:30 am SW 1.0 2.0----1016.7- 10.0 11.9 10.0---
2024-05-21 02:20 am SW 2.0 2.0 0.9 75.8 E1016.7- 10.0 11.9 10.0---
2024-05-21 02:10 amSSW 1.0 2.0 0.9-5.8 E1016.7- 10.0 11.8 10.0---
2024-05-21 02:00 am SW 2.0 2.0----1016.8 -0.8 10.0 11.8 10.0---
2024-05-21 01:50 amSSW 2.0 2.0 0.9 85.9 E1016.9- 10.0 11.8 10.0---
2024-05-21 01:40 am S 2.0 3.0----1016.9- 10.0 11.9 10.0---
2024-05-21 01:30 am S 3.0 3.0----1017.0- 10.0 11.9 10.0---
2024-05-21 01:20 am S 3.0 4.0 0.8 85.9 E1017.0- 9.9 11.9 9.9---
2024-05-21 01:10 amSSE 4.0 4.0----1016.9- 9.9 11.9 9.9---
2024-05-21 01:00 amSSE 3.0 4.0 0.8-5.9 E1016.9 -0.7 9.9 11.9 9.9---
2024-05-21 12:50 amSSE 3.0 4.0 0.8 75.9 E1016.8- 9.9 11.9 9.9---
2024-05-21 12:40 amSSE 3.0 4.0----1016.8- 10.0 11.9 10.0---
2024-05-21 12:30 amSSE 3.0 4.0----1017.0- 10.1 12.0 10.1---
2024-05-21 12:20 amSSE 3.0 4.0 0.8 86.0 E1017.1- 10.1 12.1 10.1---
2024-05-21 12:10 amSSE 3.0 4.0 0.8-6.0 E1017.1- 10.0 12.1 10.0---
2024-05-21 12:00 amSSE 3.0 4.0----1017.3 +0.3 10.0 12.2 10.0---
2024-05-20 11:50 pmSSE 3.0 3.0 0.8 85.9 E1017.4- 10.0 12.2 10.0---
2024-05-20 11:40 pm S 2.0 3.0----1017.4- 10.1 12.2 10.1---
2024-05-20 11:30 pm S 2.0 2.0----1017.4- 10.1 12.3 10.1---
2024-05-20 11:20 pm S 2.0 2.0 0.8 75.8ESE1017.6- 10.0 12.3 10.0---
2024-05-20 11:10 pm S 2.0 2.0 0.8-5.8ESE1017.6- 10.1 12.2 10.1---
2024-05-20 11:00 pmSSW 2.0 2.0----1017.7 +1.1 10.2 12.2 10.2---
2024-05-20 10:50 pm S 2.0 2.0 0.8 86.0 E1017.7- 10.2 12.4 10.2---
2024-05-20 10:40 pm S 2.0 3.0----1017.7- 10.3 12.5 10.3---
2024-05-20 10:30 pm S 2.0 3.0----1017.7- 10.3 12.4 10.3---
2024-05-20 10:20 pm S 3.0 4.0 0.8 86.0 E1017.7- 10.3 12.2 10.3---
2024-05-20 10:10 pm S 3.0 4.0 0.8-6.0 E1017.7- 10.3 12.4 10.3---
2024-05-20 10:00 pm S 2.0 3.0----1017.6 +1.0 10.4 12.5 10.4---
2024-05-20 09:50 pm S 2.0 3.0 0.7 85.9 E1017.5- 10.4 12.6 10.4---
2024-05-20 09:40 pmSSE 2.0 3.0----1017.4- 10.4 12.5 10.4---
2024-05-20 09:30 pm S 2.0 3.0----1017.4- 10.4 12.6 10.4---
2024-05-20 09:20 pm S 3.0 4.0 0.8 85.7 E1017.4- 10.3 12.5 10.3---
2024-05-20 09:10 pm S 3.0 4.0----1017.0- 10.3 12.5 10.3---
2024-05-20 09:00 pm S 3.0 4.0----1016.9 +0.0 10.4 12.4 10.4---
2024-05-20 08:50 pm S 3.0 4.0 0.8 85.6 E1016.9- 10.5 12.6 10.5---
2024-05-20 08:40 pm S 4.0 5.0----1016.8- 10.8 12.6 10.8---
2024-05-20 08:30 pmSSE 4.0 5.0----1016.9- 10.9 12.4 10.9---
2024-05-20 08:20 pmSSE 4.0 6.0 0.9 85.8 E1016.8- 10.9 12.4 10.9---
2024-05-20 08:10 pm SE 5.0 6.0----1016.6- 11.4 12.7 11.2---
2024-05-20 08:00 pm SE 5.0 6.0----1016.4 -0.7 11.8 12.4 11.4---
2024-05-20 07:50 pm SE 4.0 5.0 0.8 85.8 E1016.4- 12.0 12.1 11.5---
2024-05-20 07:40 pm SE 4.0 5.0----1016.3- 12.0 12.1 11.4---
2024-05-20 07:20 pmSSE 3.0 4.0 0.9 85.7 E1016.5- 12.2 11.4 11.5---
2024-05-20 07:10 pmSSE 3.0 4.0 0.9-5.7 E1016.4- 12.2 11.2 11.4---
2024-05-20 07:00 pmSSE 3.0 3.0----1016.5 -0.7 12.3 11.3 11.5---
2024-05-20 06:50 pmSSE 3.0 4.0 0.9 75.8 E1016.5- 12.3 11.5 11.4---
2024-05-20 06:40 pmSSE 3.0 3.0----1016.7- 12.4 11.6 11.5---
2024-05-20 06:30 pmSSE 3.0 3.0----1016.7- 12.4 11.5 11.4---
2024-05-20 06:20 pmSSE 3.0 3.0 0.8 85.7 E1016.6- 12.5 11.5 11.5---
2024-05-20 06:10 pm S 3.0 3.0 0.8-5.7 E1016.9- 12.5 11.5 11.5---
2024-05-20 06:00 pm S 3.0 3.0----1017.0 -0.4 12.6 11.4 11.6---
2024-05-20 05:50 pm S 2.0 3.0 0.9 85.9 E1017.0- 12.6 11.4 11.5---
2024-05-20 05:40 pmSSE 2.0 3.0----1016.9- 12.7 11.6 11.6---
2024-05-20 05:30 pm S 2.0 3.0----1017.0- 12.7 11.5 11.6---
2024-05-20 05:20 pm S 3.0 3.0 0.9 85.8 E1017.1- 12.7 11.5 11.6---
2024-05-20 05:10 pm S 3.0 3.0 0.9-5.8 E1017.1- 12.7 11.3 11.6---
2024-05-20 05:00 pmSSE 3.0 3.0----1017.1 -0.8 12.8 11.2 11.6---
2024-05-20 04:50 pmSSE 2.0 3.0 0.9 75.6 E1017.0- 12.8 10.8 11.6---
2024-05-20 04:40 pmSSE 2.0 3.0 0.9-5.6 E1017.0- 12.8 10.7 11.6---
2024-05-20 04:30 pm SE 3.0 4.0----1017.0- 12.9 11.3 11.7---
2024-05-20 04:20 pmSSE 3.0 4.0 1.0 75.8 E1017.1- 13.0 11.4 11.6---
2024-05-20 04:10 pm SE 3.0 4.0 1.0-5.8 E1017.2- 13.1 11.4 11.7---
2024-05-20 04:00 pm SE 3.0 4.0----1017.2 -1.2 13.1 11.3 11.6---
2024-05-20 03:50 pm SE 3.0 4.0 0.9 85.6ENE1017.2- 13.2 11.3 11.6---
2024-05-20 03:40 pm SE 3.0 3.0 0.9-5.6ENE1017.2- 13.4 11.3 12.0---
2024-05-20 03:30 pm SE 3.0 4.0----1017.1- 13.6 11.3 12.0---
2024-05-20 03:20 pm SE 3.0 4.0 0.9 75.6 E1017.4- 13.7 11.3 11.9---
2024-05-20 03:10 pm SE 3.0 3.0----1017.3- 13.8 11.3 12.2---
2024-05-20 03:00 pm SE 2.0 3.0----1017.5 -1.1 13.8 11.3 12.2---
2024-05-20 02:50 pm SE 1.0 3.0 0.9 85.7 E1017.6- 13.8 11.3 12.3---
2024-05-20 02:40 pm SE 1.0 2.0----1017.6- 14.0 11.3 12.2---
2024-05-20 02:30 pm- 0.0 1.0----1017.7- 14.3 11.2 12.2---
2024-05-20 02:20 pm- 0.0 0.0 0.9 85.8 E1017.7- 14.4 11.3 12.4---
2024-05-20 02:10 pm- 0.0 0.0 0.9-5.8 E1017.7- 14.0 11.2 12.3---
2024-05-20 02:00 pm- 0.0 1.0----1017.9 -0.5 13.6 11.1 12.2---
2024-05-20 01:50 pm SW 1.0 2.0 1.0 75.5 E1018.0- 13.5 11.1 12.1---
2024-05-20 01:40 pm W 1.0 1.0----1018.1- 13.5 11.0 12.2---
2024-05-20 01:30 pm W 1.0 2.0----1018.1- 13.3 11.0 12.1---
2024-05-20 01:20 pmWNW 2.0 3.0 0.9 85.6 E1018.2- 13.2 11.0 12.0---
2024-05-20 01:10 pmNNW 2.0 3.0 0.9-5.6 E1018.2- 13.2 10.9 12.1---
2024-05-20 01:00 pmNNW 2.0 3.0----1018.4 +0.0 13.2 10.9 12.0---
2024-05-20 12:50 pmNNW 1.0 3.0 1.0 75.6 E1018.5- 13.2 10.9 12.1---
2024-05-20 12:40 pm NW 1.0 2.0 1.0-5.6 E1018.4- 13.2 10.9 12.0---
2024-05-20 12:30 pm- 0.0 1.0----1018.2- 13.1 10.9 12.1---
2024-05-20 12:20 pmESE 1.0 2.0 0.9 85.2 E1018.5- 12.8 10.9 11.9---
2024-05-20 12:10 pm- 0.0 1.0 0.9-5.2 E1018.5- 12.7 10.9 11.8---
2024-05-20 12:00 pm- 0.0 1.0----1018.6 +0.0 12.6 10.9 11.9---
2024-05-20 11:50 am- 0.0 1.0 1.0 85.7 E1018.6- 12.3 10.9 11.8---
2024-05-20 11:40 am E 1.0 2.0 1.0-5.7 E1018.6- 12.0 10.9 11.5---
2024-05-20 11:30 am E 1.0 2.0----1018.5- 12.0 10.9 11.5---
2024-05-20 11:20 am E 1.0 2.0 0.9 65.4 E1018.5- 12.0 10.9 11.5---
2024-05-20 11:10 amENE 1.0 1.0 0.9-5.4 E1018.6- 12.0 10.8 11.5---
2024-05-20 11:00 am E 1.0 2.0----1018.5 +0.8 11.9 10.7 11.4---
2024-05-20 10:50 am E 1.0 2.0 1.0 85.5 E1018.5- 11.9 10.7 11.5---
2024-05-20 10:40 amENE 2.0 2.0 1.0-5.5 E1018.3- 11.8 10.7 11.4---
2024-05-20 10:30 am E 2.0 3.0----1018.3- 11.8 10.6 11.3---
2024-05-20 10:20 am E 2.0 2.0 0.9 75.4 E1018.4- 11.7 10.6 11.2---
2024-05-20 10:10 am E 1.0 2.0 0.9-5.4 E1018.5- 11.7 10.6 11.3---
2024-05-20 10:00 am NE 1.0 2.0----1018.3 +1.4 11.6 10.7 11.2---
2024-05-20 09:50 amNNE 1.0 2.0 1.0 65.5 E1018.4- 11.6 10.6 11.3---

Detailed Wave Summary
for 44025 as of (10:10 am EDT)
1410 GMT on 05/21/2024:

These wave data are displayed in rounded times.

     

Click on the graph icon in the table below to see a time series plot of the last five days of that observation.

5-day plot - Significant Wave Height Significant Wave Height (WVHT): 0.9 m
5-day plot - Swell Height Swell Height (SwH): 0.9 m
5-day plot - Swell Period Swell Period (SwP): 9.1 sec
5-day plot - Swell Direction Swell Direction (SwD): E
5-day plot - Wind Wave Height Wind Wave Height (WWH): 0.2 m
5-day plot - Wind Wave Period Wind Wave Period (WWP): 4.0 sec
5-day plot - Wind Wave Direction Wind Wave Direction (WWD): E
5-day plot - Wave Steepness Wave Steepness (STEEPNESS): SWELL
5-day plot - Average Wave Period Average Wave Period (APD): 6.3 sec
Previous observations
TIME
(EDT)
5-day plot - Wave Height
WVHT
m
5-day plot - Swell Height
SwH
m
5-day plot - Swell Period
SwP
sec
5-day plot - Swell Direction
SwD
 
5-day plot - Wind Wave Height
WWH
m
5-day plot - Wind Wave Period
WWP
sec
5-day plot - Wind Wave Direction
WWD
 
5-day plot - Wave Steepness
STEEPNESS
 
5-day plot - Average Wave Period
APD
sec
2024-05-21 09:40 am 0.9 0.9 7.7 E 0.3 4.2 E AVERAGE 6.1
2024-05-21 09:10 am 1.0 0.9 7.7ESE 0.2 3.7 E AVERAGE 6.4
2024-05-21 08:40 am 0.9 0.9 8.3 E 0.2 3.7 ESE SWELL 6.3
2024-05-21 08:10 am 0.9 0.9 9.1 E 0.2 3.2 ESE SWELL 6.2
2024-05-21 07:40 am 0.8 0.8 8.3ESE 0.2 4.0 E SWELL 5.8
2024-05-21 07:10 am 0.9 0.8 6.7ESE 0.3 3.8 E AVERAGE 5.8
2024-05-21 06:40 am 0.9 0.8 9.1 E 0.2 3.6 E SWELL 6.0
2024-05-21 06:10 am 0.9 0.8 5.9 E 0.3 4.0 E STEEP 5.7
2024-05-21 05:40 am 0.9 0.9 8.3ESE 0.3 3.7 E SWELL 5.8
2024-05-21 05:10 am 0.9 0.9 9.1ESE 0.2 4.0 E SWELL 5.8
2024-05-21 04:40 am 0.9 0.9 8.3 E 0.3 3.4 ESE SWELL 5.7
2024-05-21 04:10 am 0.9 0.9 8.3 E 0.2 4.0 E SWELL 5.9
2024-05-21 03:40 am 1.0 1.0 8.3 E 0.2 3.3 SE SWELL 6.0
2024-05-21 03:10 am 0.9 0.9 8.3 E 0.2 4.0 ESE SWELL 5.9
2024-05-21 02:40 am 0.9 0.8 8.3 E 0.2 4.0 E SWELL 6.0
2024-05-21 02:10 am 0.9 0.8 7.1 E 0.2 4.0 E AVERAGE 5.8
2024-05-21 01:40 am 0.9 0.9 7.7 E 0.2 4.0 E AVERAGE 5.9
2024-05-21 01:10 am 0.8 0.8 8.3 E 0.2 3.8 E SWELL 5.9
2024-05-21 12:40 am 0.8 0.8 6.7 E 0.2 3.8 E AVERAGE 5.9
2024-05-21 12:10 am 0.8 0.8 7.7 E 0.2 4.0 E AVERAGE 6.0
2024-05-20 11:40 pm 0.8 0.8 7.7 E 0.2 3.3 E SWELL 5.9
2024-05-20 11:10 pm 0.8 0.8 7.1ESE 0.2 4.0 E AVERAGE 5.8
2024-05-20 10:40 pm 0.8 0.8 7.7 E 0.2 3.8 E SWELL 6.0
2024-05-20 10:10 pm 0.8 0.7 8.3 E 0.2 3.7 E N/A 6.0
2024-05-20 09:40 pm 0.7 0.7 8.3 E 0.2 4.0 E N/A 5.9
2024-05-20 09:10 pm 0.8 0.7 7.7 E 0.2 3.8 ENE N/A 5.7
2024-05-20 08:40 pm 0.8 0.7 7.7 E 0.3 3.7 E N/A 5.6
2024-05-20 08:10 pm 0.9 0.8 7.7 E 0.2 3.7 E AVERAGE 5.8
2024-05-20 07:40 pm 0.8 0.8 8.3 E 0.2 3.8 E SWELL 5.8
2024-05-20 07:10 pm 0.9 0.8 7.7 E 0.3 3.8 ENE AVERAGE 5.7
2024-05-20 06:40 pm 0.9 0.8 6.7 E 0.2 4.0 E AVERAGE 5.8
2024-05-20 06:10 pm 0.8 0.8 7.7 E 0.3 4.0 E AVERAGE 5.7
2024-05-20 05:40 pm 0.9 0.9 7.7 E 0.2 4.0 E AVERAGE 5.9
2024-05-20 05:10 pm 0.9 0.9 8.3 E 0.3 3.8 E SWELL 5.8
2024-05-20 04:40 pm 0.9 0.8 7.1 E 0.3 3.8 E AVERAGE 5.6
2024-05-20 04:10 pm 1.0 0.9 6.7 E 0.3 3.8 E AVERAGE 5.8
2024-05-20 03:40 pm 0.9 0.8 7.7ENE 0.3 3.4 E AVERAGE 5.6
2024-05-20 03:10 pm 0.9 0.9 7.1 E 0.3 4.0 E AVERAGE 5.6
2024-05-20 02:40 pm 0.9 0.9 7.7 E 0.3 3.7 E AVERAGE 5.7
2024-05-20 02:10 pm 0.9 0.9 7.7 E 0.3 3.8 E AVERAGE 5.8
2024-05-20 01:40 pm 1.0 0.9 7.1 E 0.3 3.6 E AVERAGE 5.5
2024-05-20 01:10 pm 0.9 0.9 8.3 E 0.3 3.7 E SWELL 5.6
2024-05-20 12:40 pm 1.0 0.9 7.1 E 0.3 4.0 E AVERAGE 5.6
2024-05-20 12:10 pm 0.9 0.8 7.7 E 0.3 3.4 ESE AVERAGE 5.2
2024-05-20 11:40 am 1.0 0.9 7.7 E 0.3 4.0 E AVERAGE 5.7
2024-05-20 11:10 am 0.9 0.9 6.2 E 0.3 3.7 E STEEP 5.4
2024-05-20 10:40 am 1.0 0.9 7.7 E 0.3 3.7 E AVERAGE 5.5
2024-05-20 10:10 am 0.9 0.9 7.1 E 0.3 4.0 E AVERAGE 5.4

Plot of wave energy versus frequency (and period)